Terug naar catalogus

PSLV R/B

ActiefSSO
NORAD 36800·ROCKET BODY·🇮🇳 India

Gelanceerd Jul 12, 2010 vanaf Satish Dhawan Space Centre

Loading…

Volgende Passages (komende 24 uur)

TLE

VersSource: Space-Track

Epoch: Sep 14, 2026, 13:41 UTC

1 36800U 10035F   26257.57068206  .00004346  00000-0  24778-3 0  9990
2 36800  97.9849 192.5206 0010701 284.8338  75.1706 15.13316448882599

Volg PSLV R/B in realtime met AllMySat

Download on the App Store